ISS (ZARYA) (25544 NORAD) Tracking and Keplerian Element Data

This shows tracking and keplerian element data for the satellite.

Feedback or suggestion? Click here.




ElementValue
Catalog25544
NameISS (ZARYA)
Epoch Orbit30425
Epoch Day269.21339421
Epoch Year2021
RAAN203.2055
Inclination51.6419
Eccentricity0.000386
Argument of Perigee27.6676
Mean Anonmoly56.1483
Mean Motion15.48861169
Decay Rate-4.5E-06
L11 25544U 98067A 21269.21339421 -.00000450 00000-0 00000+0 0 9994
L22 25544 51.6419 203.2055 0003860 27.6676 56.1483 15.48861169304256

Live tracking and technical data element details for ISS (ZARYA) (NORAD 25544). ISS (ZARYA) can be tracked NOW for your location showing map with azimuth and elevation plus other details from your city location.

Track the satellite on the map from your city or location and see movement details for azimuth, elevation, latitude, longitude, range, height, and movement on the map or in text.







IsCatalogInMostPopularTable: catalog: 25544, numindb: 95309
Update: records affected: 3



GetName: 25544 ISS (ZARYA)

Hit Count: updated at: Mon, 27 Sep 2021 00:40:15 GMT